RH
9 8 7 7 6 4 3 2 6 75 89 94 88 53 33 27 26 27 22 22 18 16 18 20 21 23 22 24 28 35 46 37 26 25 15 19 37 41 38 38 36 34 32 29 33
15 13 10 8 8 6 4 2 2 44 83 89 95 82 43 29 26 23 25 26 23 17 17 22 21 25 25 24 30 35 41 29 22 22 24 19 26 34 37 40 38 36 34 33 31
16 14 13 11 10 8 6 2 2 11 88 88 100 94 65 34 28 23 24 28 31 24 17 23 30 35 30 28 37 38 33 22 16 19 23 24 32 36 43 38 40 38 37 36 39
17 22 24 27 25 21 9 4 2 4 49 94 99 99 86 48 34 26 26 28 36 36 22 28 31 37 34 38 34 41 37 24 18 20 30 36 36 40 52 46 39 40 38 43 46
84 100 99 96 67 51 21 13 4 2 36 72 99 98 100 58 31 36 48 34 42 71 59 24 32 34 31 38 36 46 50 36 26 28 31 52 60 40 44 50 46 40 39 38 40
99 95 97 96 89 73 60 17 8 4 16 34 93 99 95 69 36 40 71 59 46 81 70 51 45 40 36 35 47 53 38 42 40 31 30 37 44 48 33 44 51 48 43 40 38
88 86 90 81 81 76 77 75 33 7 3 23 92 99 86 81 38 45 72 84 73 73 87 79 85 74 44 58 67 64 81 76 48 35 39 36 25 34 37 33 42 49 49 46 41
79 85 85 84 83 83 81 80 83 50 4 62 99 98 95 92 49 40 61 72 86 88 99 100 99 76 60 83 81 91 84 82 52 37 41 43 30 24 23 26 28 29 42 44 42
75 79 79 80 86 80 82 79 98 86 8 58 99 99 95 95 50 51 63 78 73 90 92 98 100 94 85 78 78 90 90 82 55 51 45 50 45 22 29 29 29 22 18 17 17
73 66 62 86 81 88 87 66 75 87 18 79 99 99 99 91 49 67 84 78 74 79 91 100 100 100 99 90 94 79 77 70 74 55 69 68 67 48 47 44 36 33 26 22 18
66 53 48 61 56 92 85 80 74 72 45 99 98 99 98 96 50 69 91 83 86 99 93 99 100 97 100 96 89 92 87 82 68 76 68 68 76 42 28 44 40 34 26 23 21
57 46 46 52 75 84 91 91 74 86 48 98 98 98 70 77 50 76 92 85 84 89 99 100 100 99 99 99 93 89 89 76 75 76 76 64 55 44 33 32 26 20 20 19 21
38 37 43 56 58 70 84 71 64 77 54 97 98 98 96 58 50 68 92 81 83 84 82 84 88 87 88 87 98 87 89 86 81 69 66 63 56 39 21 14 14 13 13 14 13
31 32 35 43 48 63 96 66 77 97 83 97 98 99 95 74 72 74 98 80 94 96 100 98 90 90 91 83 85 85 85 82 77 67 61 46 60 16 15 14 14 16 14 15 17
37 56 84 73 61 62 97 83 73 98 95 71 98 94 96 81 77 100 100 99 96 91 90 87 95 89 77 88 90 86 80 74 73 76 74 50 61 21 16 14 16 14 15 15 12
92 85 95 99 96 91 96 98 88 96 95 98 99 99 96 88 91 100 100 96 98 91 94 88 84 84 79 79 84 88 81 77 75 73 84 52 60 29 21 21 22 24 20 22 24
78 78 92 87 82 91 97 79 75 95 97 98 99 98 93 100 99 95 95 99 95 99 100 98 93 91 84 87 89 90 84 84 89 94 83 63 77 26 24 24 28 31 31 28 31
79 82 96 100 89 88 80 82 85 95 93 99 94 97 94 97 96 99 97 100 89 86 93 94 95 89 80 84 68 89 79 70 79 96 86 62 65 31 24 15 21 30 35 34 34
88 91 93 83 82 87 83 92 95 97 98 98 100 93 99 93 98 99 96 95 92 81 76 88 87 90 84 86 83 88 94 82 89 90 92 55 36 24 22 34 36 36 37 37 38
88 81 76 70 86 96 96 96 97 94 92 90 93 98 99 95 95 95 94 98 85 75 71 75 89 94 94 95 93 81 79 87 87 82 88 64 57 26 33 40 40 42 44 46 45
67 56 58 53 84 92 96 97 98 93 97 96 88 96 94 93 84 90 90 86 80 80 80 84 78 99 94 91 87 90 91 84 79 78 93 95 50 42 44 41 39 42 50 54 59
56 64 53 68 88 92 97 97 97 98 89 87 84 69 80 81 89 81 80 92 76 71 83 85 90 90 95 88 89 91 84 82 72 68 92 92 65 48 44 51 58 79 85 85 75
48 64 47 68 83 97 98 99 99 90 90 88 79 75 72 72 82 76 81 88 84 83 88 84 88 90 92 86 89 90 88 95 85 79 88 85 64 51 58 75 94 84 95 96 82
54 78 54 60 91 93 97 99 100 99 91 78 77 77 80 74 78 83 83 96 92 94 88 87 86 76 77 77 76 84 71 75 88 92 86 78 63 70 90 97 86 88 96 99 100
58 83 77 67 71 72 85 100 99 88 85 84 85 81 77 92 92 87 89 95 97 97 93 96 90 86 78 85 90 85 79 83 87 72 93 65 83 83 94 100 99 95 98 99 100
54 61 70 88 85 100 88 92 91 93 88 93 95 100 87 87 85 86 77 87 95 98 99 97 94 84 70 63 66 69 69 67 70 72 91 82 86 98 99 100 100 92 100 99 92
47 51 79 87 90 94 95 97 95 94 96 93 92 92 90 86 86 84 79 81 80 79 88 99 99 90 68 90 82 80 68 69 73 79 84 91 87 98 93 98 94 99 88 87 89
Wind_Speed
31 29 28 26 26 27 29 28 29 31 23 22 24 24 23 25 25 28 29 21 24 24 24 27 29 28 30 34 31 30 34 37 36 33 31 20 21 18 9 14 25 26 24 21 18
34 34 33 30 32 29 31 31 31 33 30 22 23 23 24 26 26 30 19 24 24 26 25 23 25 28 32 32 34 36 41 40 36 34 25 27 26 25 17 13 23 25 23 26 26
41 38 38 38 34 34 32 33 33 33 33 28 23 23 24 24 27 21 24 25 24 24 23 23 25 28 31 31 36 38 41 41 34 34 28 32 26 26 19 21 25 26 25 27 24
45 44 41 43 42 35 33 34 33 33 34 30 21 25 24 24 18 20 23 23 21 21 25 25 28 30 31 34 35 36 38 35 32 29 27 28 31 31 25 24 28 29 30 26 25
36 27 32 28 31 31 29 31 35 33 35 33 22 28 29 27 23 11 13 20 21 23 20 24 27 27 30 33 31 38 34 34 31 27 30 33 33 34 36 27 29 33 36 37 36
33 34 37 38 32 32 25 28 29 32 35 36 27 31 31 31 18 20 10 17 21 25 21 24 22 22 25 25 31 25 33 28 28 31 34 37 39 39 41 34 31 35 36 38 40
36 35 35 32 30 26 23 22 27 33 33 35 28 28 34 22 22 21 16 16 21 23 23 19 18 23 18 17 19 24 15 21 26 29 33 37 44 49 42 37 40 38 39 39 39
30 29 27 25 22 19 19 17 15 20 30 38 29 29 34 21 23 23 26 16 23 26 22 20 21 23 18 15 16 17 21 23 22 21 24 28 50 43 36 38 41 43 44 46 45
27 25 23 19 18 20 17 16 14 14 28 40 35 31 28 25 27 21 24 23 15 25 27 26 26 27 20 23 14 21 16 19 18 16 23 27 37 30 22 30 34 33 34 40 45
24 23 19 17 18 19 17 13 13 12 24 32 33 26 27 26 24 24 19 25 22 20 27 28 24 31 27 27 18 17 22 22 19 17 17 23 30 25 23 26 29 29 32 35 37
24 18 16 16 14 17 19 11 11 9 31 32 23 29 18 17 25 27 23 23 24 19 23 31 21 26 31 22 21 12 13 14 17 15 22 26 30 31 30 32 31 30 28 28 26
18 14 13 11 9 13 23 10 8 9 32 25 15 25 14 26 30 27 28 26 28 24 21 24 26 15 15 15 12 13 19 20 19 20 23 29 35 32 29 31 31 28 30 32 32
15 14 14 13 14 14 15 6 9 11 17 28 13 22 18 21 28 34 31 27 26 25 24 20 14 19 15 13 14 13 14 18 21 22 25 32 40 34 26 23 21 13 16 20 22
15 16 17 21 15 14 10 4 7 16 10 13 18 26 25 24 25 29 29 25 27 24 19 15 16 16 16 17 16 14 17 20 22 18 10 11 10 29 20 18 18 17 17 18 18
22 24 23 19 22 11 5 6 10 16 5 15 21 23 26 26 28 33 29 25 25 26 18 9 20 16 17 22 16 15 15 13 13 15 19 19 10 12 16 11 8 11 9 5 8
23 22 15 13 15 7 6 4 9 4 3 14 20 36 30 14 34 36 27 21 20 21 16 8 13 16 13 12 17 16 13 11 13 12 5 6 11 9 1 7 8 6 8 7 10
22 14 9 7 3 8 12 10 7 2 4 22 32 35 28 28 28 33 26 27 18 19 16 13 10 12 11 13 14 16 10 1 2 1 6 3 6 15 7 6 11 11 14 18 11
15 11 8 6 9 10 17 10 2 5 7 15 37 33 25 23 30 32 27 28 18 14 23 15 7 16 11 17 9 18 10 3 4 3 4 4 7 3 2 11 15 17 15 16 16
12 11 13 11 11 14 11 7 2 8 11 32 39 30 28 24 27 28 26 26 20 16 9 15 5 6 6 17 14 14 10 8 3 5 2 7 7 12 12 5 8 14 20 20 22
11 14 13 12 10 12 5 5 5 6 35 40 21 18 20 22 23 21 24 23 21 18 11 10 7 7 9 14 15 8 10 6 5 1 4 6 7 13 7 13 13 9 13 17 20
13 19 16 13 10 8 8 7 12 16 33 16 9 16 22 21 18 21 20 5 28 19 10 13 5 12 12 11 21 19 10 6 4 4 3 4 8 6 6 13 19 27 30 33 42
16 21 13 13 10 10 11 5 20 19 18 13 5 21 22 19 17 14 16 2 20 20 19 14 8 8 17 4 7 12 19 14 5 3 6 2 15 6 7 15 19 39 38 34 29
20 18 13 8 8 15 14 15 17 14 10 12 9 12 21 20 13 10 15 7 15 16 21 16 6 5 3 12 16 15 19 21 19 15 15 2 12 12 23 35 33 33 35 33 26
18 15 13 9 14 20 19 23 18 14 8 9 12 13 27 15 8 16 18 12 16 15 18 10 9 5 7 4 7 12 14 16 20 11 12 25 40 35 37 33 31 29 30 33 36
12 10 7 9 13 7 16 20 19 21 22 21 18 25 20 10 12 17 18 17 18 18 16 13 7 12 13 10 10 12 13 15 24 28 26 35 35 29 32 29 28 31 32 34 28
7 9 9 12 10 17 17 15 14 15 15 19 21 11 8 15 7 19 17 19 14 21 17 16 7 8 9 11 16 22 24 24 26 28 35 30 33 22 35 26 31 30 28 22 20
4 8 8 15 19 15 13 11 12 14 14 13 11 9 11 7 8 6 9 13 7 12 21 15 9 5 3 4 8 13 10 15 12 17 21 26 26 27 27 29 29 24 15 15 15
Wind_Direction
302 297 290 284 275 272 269 264 252 239 241 253 256 253 248 246 242 239 237 236 231 227 222 219 214 213 213 215 216 217 219 224 230 233 237 218 232 229 244 225 234 239 242 256 237
301 294 289 283 279 266 266 259 256 240 237 244 251 250 247 245 242 239 235 230 224 223 215 217 217 211 214 210 214 216 222 227 231 233 237 231 237 236 232 221 225 233 237 249 236
303 295 288 284 279 274 262 259 253 239 232 233 252 243 245 244 244 239 230 225 223 222 215 209 206 207 211 209 212 217 227 231 236 234 238 236 228 233 235 224 227 226 243 239 229
303 297 292 288 280 274 263 254 252 245 230 227 240 239 242 239 240 235 228 223 215 216 209 207 206 208 205 211 212 219 227 233 236 236 236 238 231 229 229 226 226 231 227 226 226
306 302 297 303 300 294 276 263 254 241 227 221 217 238 241 235 225 228 224 214 203 203 209 204 210 209 210 212 212 222 224 230 234 226 230 234 238 229 227 220 227 236 234 238 244
296 296 294 298 304 302 280 256 246 247 226 216 213 232 237 232 212 216 199 199 196 191 196 198 204 208 217 214 216 230 232 235 232 233 232 233 238 241 231 221 222 232 236 238 246
303 299 302 304 303 292 290 280 249 236 224 210 211 230 241 223 214 205 191 182 187 191 193 188 194 202 213 203 210 208 210 231 232 236 236 237 245 242 245 232 232 233 235 238 243
316 314 313 307 301 296 293 279 274 259 212 199 206 220 234 218 211 199 195 188 197 194 189 187 200 202 199 192 204 208 223 232 238 241 247 241 252 249 252 252 249 244 240 244 238
321 318 319 318 309 306 301 282 268 265 204 198 214 212 227 222 211 195 193 194 189 198 198 198 192 196 194 197 193 212 220 236 256 250 249 238 255 262 260 250 252 249 242 243 245
324 321 325 319 311 317 314 283 279 278 197 190 215 220 206 214 199 193 180 193 201 193 199 200 199 196 199 197 202 216 225 241 259 240 237 253 261 259 259 257 256 250 246 244 248
323 317 313 305 307 323 321 286 273 237 188 189 200 194 199 197 193 188 182 185 183 192 200 197 197 203 184 214 212 219 237 234 242 238 258 250 251 252 254 255 257 263 261 253 249
328 311 294 292 302 329 336 261 238 212 194 178 156 172 149 190 185 179 182 185 189 194 189 201 215 217 223 226 227 243 234 240 248 255 265 263 261 263 270 276 277 267 258 259 257
319 303 291 281 288 318 323 238 218 204 195 196 157 173 154 175 185 177 179 188 192 197 204 205 212 215 221 207 204 227 238 248 266 264 266 272 276 277 279 274 274 275 257 257 261
325 316 302 295 290 324 322 247 189 153 161 211 183 162 159 166 171 177 173 185 186 193 196 205 214 207 208 206 214 223 244 254 264 279 281 281 292 276 281 270 272 264 264 258 254
319 315 315 299 290 310 276 194 192 148 136 204 165 170 158 161 173 169 171 184 181 178 178 179 190 191 203 216 216 233 245 250 260 275 287 280 249 285 289 292 259 269 283 275 292
338 330 318 315 285 248 166 145 171 130 190 162 154 154 154 158 161 169 171 177 173 182 182 178 187 205 207 201 215 231 239 251 272 283 280 270 222 293 241 118 9 336 283 286 295
336 347 357 359 78 149 151 127 135 329 53 136 148 153 159 154 162 170 172 167 164 165 178 178 183 201 202 199 197 217 223 336 337 321 230 297 232 253 180 302 305 281 262 279 272
12 28 33 55 121 136 124 112 146 281 296 141 149 148 151 158 165 176 171 168 173 175 178 185 206 216 211 207 202 209 204 196 215 226 287 256 237 128 238 281 286 280 270 274 279
16 48 59 81 103 118 94 51 302 343 108 138 147 148 138 158 168 181 183 182 182 183 173 174 166 164 208 209 202 196 217 225 240 255 305 255 273 285 283 329 258 257 257 255 260
62 68 65 89 113 133 50 51 28 132 139 143 134 157 148 165 169 174 183 197 186 177 149 154 132 177 163 189 205 213 201 181 204 103 269 276 276 249 264 276 253 245 264 267 262
68 71 79 97 95 90 357 9 81 132 145 138 136 147 157 148 183 179 183 186 194 175 159 166 175 173 191 216 206 203 192 193 218 218 192 306 270 243 293 286 275 285 295 288 285
68 69 85 101 77 43 11 109 108 86 128 126 115 181 174 166 164 176 187 217 190 200 181 184 178 174 202 192 182 235 233 218 212 192 231 274 273 307 299 310 305 302 305 304 308
76 68 92 53 38 25 83 94 104 110 124 165 173 186 187 167 149 181 177 177 165 185 188 186 188 151 185 228 225 232 226 228 240 270 255 211 264 300 314 307 313 310 314 313 314
76 77 84 74 77 75 79 81 97 93 108 145 154 173 167 168 168 180 175 172 176 181 198 208 227 203 190 153 187 213 217 216 221 240 248 245 285 312 324 324 319 317 321 319 319
76 78 98 109 122 86 87 102 107 105 111 132 130 137 152 150 160 174 182 171 174 180 192 207 233 237 238 224 226 228 230 230 233 255 251 288 290 317 331 322 321 317 319 318 317
112 106 123 111 107 108 118 108 117 127 134 124 123 131 162 149 176 176 190 189 175 197 195 213 242 268 282 248 244 249 250 251 250 261 265 295 296 328 328 317 317 320 321 322 333
167 148 124 129 139 127 118 116 122 135 138 148 143 146 158 132 133 152 163 179 203 212 215 218 243 255 260 208 280 276 261 238 253 274 289 287 315 305 318 324 327 329 332 333 338